Wind_Speed
3 3 3 3 4 4 4 5 4 5 5 5 5 5 5 4 4 5 4 4 4 4 4 3 4 3 2 2 2 2 2 2 2 2 2 2 2 2 2 3 2 2 1 2 3 4 4 4 5
2 3 3 4 4 4 4 5 5 5 5 5 5 5 4 4 4 5 4 4 4 4 4 3 3 3 3 2 2 1 1 2 1 1 1 2 2 2 2 2 2 2 2 1 2 3 3 4 5
2 3 3 3 4 4 5 5 5 5 6 5 6 5 5 4 4 5 5 5 4 4 4 4 3 3 3 2 2 2 2 2 2 2 2 2 2 2 2 2 2 2 1 1 1 1 2 3 4
2 2 3 3 4 5 5 5 5 6 6 6 5 5 5 5 5 5 5 5 5 4 4 4 4 4 3 3 3 3 2 2 3 3 2 2 2 3 3 3 3 3 2 1 1 1 2 2 2
1 2 2 3 4 5 5 5 6 6 6 6 6 5 5 6 6 6 6 6 6 5 5 5 5 5 4 4 4 3 3 3 3 3 4 4 4 4 4 4 3 3 3 2 2 2 2 3 3
2 2 2 3 4 5 5 6 6 7 7 7 7 6 6 6 6 6 6 6 6 6 6 6 6 5 6 5 5 5 5 5 5 4 5 5 4 5 4 5 4 4 4 4 3 3 3 4 5
2 3 3 3 4 5 6 6 6 7 7 7 7 7 7 7 7 7 7 7 7 7 7 7 7 7 7 7 7 6 6 6 6 5 5 6 5 5 6 6 6 6 5 5 5 4 5 5 6
3 3 3 3 4 4 5 6 6 7 7 7 7 8 8 8 8 8 8 8 8 8 8 8 8 8 8 8 8 8 7 7 6 6 6 6 6 6 6 7 8 8 7 7 6 6 6 7 7
4 3 3 4 4 4 5 5 6 6 7 7 8 8 8 8 8 8 8 8 8 9 9 9 9 9 8 8 8 8 8 8 8 8 8 7 7 7 7 8 8 8 8 8 8 8 8 8 8
4 4 4 4 5 5 5 5 5 6 6 7 7 8 8 8 8 8 8 8 9 9 9 9 10 10 9 9 9 9 9 9 9 9 9 9 9 9 9 8 9 9 9 9 9 9 10 9 9
5 4 4 5 5 5 6 6 6 6 7 7 7 7 8 8 8 8 9 9 9 9 10 10 10 10 9 9 9 9 9 9 9 9 10 10 10 10 10 10 10 10 9 9 9 10 10 9 9
5 6 6 6 6 5 5 6 6 6 7 7 7 7 7 8 8 8 8 9 9 10 10 10 10 11 10 10 10 10 10 9 9 10 10 10 10 10 10 10 10 10 10 10 9 10 10 9 9
6 6 6 6 6 6 6 6 6 7 7 7 7 7 8 8 8 9 9 9 9 9 10 10 11 11 11 11 10 10 10 9 10 10 10 10 10 10 10 9 9 10 9 9 10 10 10 9 9
6 6 6 6 6 6 6 6 6 7 8 8 8 8 8 8 9 9 9 9 10 10 10 10 11 11 11 11 11 11 11 10 11 11 11 11 10 9 9 9 10 9 9 10 10 10 9 9 9
7 7 7 6 6 6 6 6 6 7 8 8 9 9 10 10 10 10 10 11 11 11 11 12 12 12 12 12 12 12 12 12 11 11 11 10 9 9 10 9 9 10 10 9 10 10 10 9 9
9 8 8 7 8 7 7 7 8 8 9 9 10 11 11 10 11 11 11 11 12 13 13 13 13 13 13 14 13 14 13 13 12 12 11 11 11 10 10 9 10 10 10 9 9 9 10 10 10
10 10 10 9 9 9 9 8 9 9 10 11 11 12 12 12 12 12 12 12 13 13 13 13 13 13 14 14 14 14 13 13 13 12 12 12 11 11 10 10 10 10 9 10 10 9 10 11 11
11 11 11 11 11 10 10 10 10 10 10 11 12 12 13 13 13 13 13 13 13 14 14 14 14 14 14 14 14 14 13 13 13 13 13 13 13 12 11 11 10 10 10 11 11 11 11 11 11
12 12 12 12 12 12 11 11 12 12 12 12 12 13 14 14 14 14 14 14 14 14 14 14 14 14 14 14 14 14 14 14 14 14 14 14 13 13 12 11 11 11 11 12 12 12 12 12 12
13 13 13 13 13 13 13 12 13 14 13 13 14 14 15 15 15 15 15 15 15 16 16 15 15 15 15 15 14 14 14 14 14 15 14 14 14 13 13 12 12 12 12 12 13 13 13 13 13
14 14 14 14 14 14 14 14 14 14 14 14 15 15 16 16 16 16 16 17 17 17 17 17 17 17 17 16 16 15 15 14 14 14 14 14 14 14 14 13 13 13 13 13 13 14 13 13 13
14 14 15 14 15 15 15 15 15 15 15 16 16 17 17 17 18 17 17 18 18 18 18 18 18 18 18 18 17 17 17 16 16 16 16 15 15 15 15 14 14 15 15 14 14 14 14 14 14
15 15 15 15 15 16 17 17 15 16 17 17 17 17 17 18 18 19 19 19 19 19 18 19 19 19 19 19 19 19 19 19 18 18 17 17 16 16 15 16 16 16 16 16 15 15 15 15 15
16 16 17 17 17 17 17 18 17 17 17 17 17 17 17 18 19 19 20 20 20 20 20 20 20 20 20 20 20 20 20 20 19 19 18 18 18 18 17 17 17 17 17 17 17 17 16 17 17
17 17 17 17 18 18 17 19 18 18 17 17 17 18 18 18 19 20 20 20 21 21 21 21 21 21 21 21 21 21 21 21 21 21 21 20 20 20 20 20 19 19 18 18 18 18 18 18 18
17 18 18 19 19 19 19 19 19 18 18 18 18 18 18 18 19 20 21 21 21 21 21 22 21 22 22 22 23 23 23 23 22 22 22 22 22 22 21 21 21 20 20 19 19 19 19 19 20
18 19 19 20 21 20 20 19 19 18 19 20 20 20 19 19 20 20 20 21 21 21 22 22 22 22 22 23 23 23 24 24 24 24 24 23 23 23 22 22 22 22 21 21 21 21 20 20 20
19 19 19 20 20 21 20 20 21 20 20 21 21 20 20 21 21 21 21 21 21 22 22 22 22 23 23 23 23 23 24 25 25 25 24 24 24 24 24 23 22 22 22 22 22 22 21 21 21
19 19 19 19 20 20 20 20 20 21 20 20 20 21 21 22 22 22 22 23 23 22 23 23 22 23 23 23 23 24 25 25 25 25 25 25 25 25 25 24 24 23 23 24 23 23 23 23 22
19 19 19 20 20 20 21 21 20 20 20 20 21 22 22 22 22 23 23 24 24 24 24 23 23 24 24 24 24 24 24 25 25 26 26 25 25 26 26 25 25 25 25 25 25 25 24 24 24
Wind_Direction
187 186 188 184 181 185 191 193 195 192 195 195 193 189 186 190 192 191 185 176 174 173 169 172 172 176 173 183 189 185 184 183 189 195 211 223 210 199 191 189 200 210 210 211 216 223 228 229 231
182 187 187 189 192 195 204 203 199 195 199 197 191 190 192 192 188 182 180 182 185 182 179 174 173 179 181 184 184 188 196 191 183 187 197 217 226 209 203 198 199 196 197 213 243 235 235 233 237
179 179 189 195 201 209 213 207 201 201 206 206 201 201 200 201 195 193 192 193 198 196 189 186 187 187 197 198 199 211 232 232 216 209 197 202 212 212 211 208 200 191 200 242 260 228 232 239 243
182 181 197 205 209 213 219 218 212 214 213 213 212 211 210 210 209 206 204 204 207 207 204 199 201 205 217 221 226 222 231 235 230 227 225 219 217 209 209 219 215 211 216 247 246 237 252 248 244
189 195 208 218 217 216 223 221 217 216 214 216 218 214 214 217 217 210 207 207 212 215 216 211 212 217 224 233 238 238 244 245 242 242 235 227 224 221 221 232 231 235 240 247 261 267 252 253 261
219 220 224 232 231 230 230 229 227 223 219 218 221 220 221 222 221 218 216 215 217 219 221 221 223 230 236 240 246 251 255 251 247 241 239 240 237 231 231 237 241 246 255 256 264 264 257 258 268
242 239 238 236 238 239 236 232 226 224 222 222 224 227 229 229 227 226 225 226 226 226 227 230 233 238 242 244 248 249 252 253 247 239 240 243 240 234 234 237 242 248 256 260 263 265 263 262 268
241 239 241 239 239 239 240 238 231 226 225 226 228 232 233 233 231 230 230 233 233 233 235 238 239 242 246 248 249 252 253 253 248 244 245 245 245 245 243 244 247 248 255 261 261 263 266 268 270
237 238 238 237 235 232 236 238 236 234 231 231 232 232 233 231 232 234 235 238 239 239 238 239 241 243 246 248 250 252 254 255 253 250 249 249 249 249 252 252 249 252 257 260 260 263 267 271 271
235 238 239 238 234 232 235 239 239 236 235 236 234 233 234 233 235 236 236 240 240 241 243 245 247 247 247 248 250 252 252 254 254 252 252 251 251 253 254 255 253 256 261 263 263 266 267 272 273
235 237 244 245 243 241 241 242 243 241 239 237 239 237 238 237 237 239 239 239 241 243 245 246 249 250 250 252 252 251 251 253 253 253 253 255 255 255 254 256 259 260 260 264 268 268 269 272 273
239 243 248 249 246 247 247 246 244 244 243 241 242 241 241 240 239 242 241 241 243 245 247 249 252 254 252 253 255 253 252 254 256 257 257 261 262 261 258 259 261 261 261 263 266 267 267 271 272
242 248 253 250 247 249 249 250 248 247 245 243 245 243 241 243 244 248 247 247 247 248 250 252 254 254 255 256 258 257 256 259 258 259 260 263 266 267 264 263 264 263 262 263 264 264 266 270 271
246 252 255 248 245 248 250 252 253 252 249 245 248 247 244 246 249 250 250 250 251 254 257 259 258 256 255 256 259 260 261 263 262 260 258 260 262 263 266 265 264 264 263 264 265 266 267 270 271
246 250 255 250 248 249 254 255 254 253 253 251 251 251 249 250 251 253 255 254 256 257 258 260 261 260 259 257 258 260 263 264 264 261 258 257 259 262 266 267 268 267 265 265 264 266 269 270 269
247 248 251 254 255 254 256 256 256 256 256 257 255 254 254 254 254 256 258 258 259 261 260 259 260 261 260 260 258 259 261 262 260 257 256 257 261 265 265 268 271 269 264 264 266 267 268 268 265
245 247 249 253 255 256 258 261 262 264 263 261 259 258 257 258 257 257 259 260 261 262 261 260 259 259 261 262 260 259 258 258 258 257 257 257 261 264 261 264 269 268 268 267 269 273 273 268 264
245 246 248 252 255 256 260 264 266 266 265 264 262 260 259 259 260 261 262 262 263 263 262 261 260 261 262 263 262 259 256 257 258 258 258 258 260 264 262 266 267 266 268 269 270 273 271 268 267
244 245 248 252 256 258 260 264 267 267 267 265 263 261 261 261 261 262 263 262 262 261 261 261 261 260 261 260 261 261 259 259 259 258 258 259 260 263 261 264 266 268 271 272 272 271 271 271 271
247 247 250 253 258 261 263 265 267 268 268 266 264 263 262 262 263 264 262 262 263 263 262 261 261 260 259 258 259 260 259 260 262 261 258 256 257 258 257 259 264 268 272 273 272 270 272 272 271
248 251 252 255 260 263 265 266 268 268 269 268 265 263 262 262 262 264 263 263 263 263 262 260 259 259 259 258 259 259 260 261 263 261 258 254 251 253 259 260 263 267 269 272 273 270 270 270 271
251 253 255 258 262 266 267 268 266 268 269 268 266 263 263 262 262 264 264 264 264 263 262 260 260 260 259 259 258 257 259 260 260 259 259 257 254 254 258 262 265 267 269 271 272 269 270 269 268
253 256 258 261 263 267 268 269 266 269 269 269 268 266 265 263 262 263 263 263 263 263 262 262 262 260 259 260 259 258 259 257 257 258 259 259 257 255 259 262 263 265 267 270 271 269 269 268 269
256 259 261 262 264 267 268 270 269 270 270 270 270 269 268 265 263 263 263 263 264 263 262 262 261 261 260 259 258 257 258 258 257 259 258 258 259 260 262 263 263 263 266 269 271 272 271 270 268
257 259 262 264 265 267 268 269 270 272 270 270 271 271 270 267 265 264 263 262 263 263 262 261 262 263 263 260 259 258 258 258 258 259 259 260 261 264 267 266 263 263 266 269 271 270 272 272 272
257 258 259 262 265 268 268 269 272 273 272 272 272 272 271 269 267 266 264 262 262 262 262 262 263 264 263 261 260 259 259 259 257 258 260 262 263 264 266 266 264 264 266 268 271 272 274 273 273
258 260 262 265 268 269 269 271 273 273 274 275 275 273 272 273 272 268 266 264 264 263 264 263 263 263 263 263 262 260 259 258 257 258 259 261 261 263 264 264 265 265 266 268 271 272 274 275 275
260 260 262 264 267 270 272 273 275 275 275 277 279 278 274 272 271 268 266 265 264 264 266 265 264 263 263 263 263 262 260 259 258 258 258 259 260 261 261 263 265 267 267 267 269 272 273 274 275
262 262 263 263 265 269 272 273 274 275 276 277 279 279 277 274 272 269 266 266 264 264 265 265 264 265 265 265 264 263 261 259 259 258 258 259 259 259 260 262 264 266 268 268 268 270 271 272 273
263 261 261 263 265 267 270 272 274 275 274 275 275 275 275 274 271 268 266 265 264 264 265 267 265 266 266 266 265 263 262 259 258 258 258 259 260 260 262 263 264 266 268 269 269 270 271 271 273
Height
5871 5871 5872 5874 5875 5875 5875 5875 5875 5875 5876 5876 5876 5877 5877 5878 5879 5882 5880 5878 5879 5879 5878 5878 5879 5879 5879 5879 5879 5878 5878 5878 5878 5878 5878 5877 5876 5876 5876 5876 5876 5875 5875 5874 5874 5875 5875 5875 5875
5871 5871 5873 5873 5874 5874 5875 5874 5874 5875 5875 5875 5875 5876 5877 5877 5878 5878 5878 5878 5878 5878 5878 5878 5879 5879 5879 5879 5879 5879 5878 5878 5878 5878 5878 5877 5877 5876 5876 5876 5876 5876 5875 5875 5875 5875 5875 5875 5875
5870 5871 5873 5873 5873 5874 5874 5874 5874 5874 5874 5874 5875 5876 5876 5877 5877 5877 5878 5878 5878 5878 5878 5878 5878 5879 5879 5879 5879 5879 5878 5878 5878 5878 5878 5877 5877 5876 5876 5876 5876 5876 5875 5875 5875 5875 5875 5875 5875
5870 5871 5872 5872 5872 5873 5873 5873 5873 5873 5874 5874 5874 5875 5875 5876 5876 5877 5877 5877 5878 5878 5878 5878 5878 5878 5879 5878 5878 5878 5878 5878 5878 5877 5877 5877 5877 5876 5876 5876 5876 5875 5875 5875 5875 5875 5875 5875 5874
5870 5870 5871 5871 5871 5871 5872 5872 5872 5873 5873 5873 5874 5874 5874 5875 5875 5876 5876 5876 5877 5877 5877 5877 5878 5878 5878 5878 5878 5878 5878 5877 5877 5877 5877 5876 5876 5876 5875 5875 5875 5875 5875 5875 5875 5875 5874 5874 5874
5870 5870 5870 5870 5870 5870 5870 5871 5871 5871 5872 5872 5873 5873 5873 5874 5874 5874 5875 5875 5876 5876 5876 5877 5877 5877 5878 5878 5877 5877 5877 5877 5876 5876 5876 5876 5876 5875 5875 5875 5875 5875 5874 5874 5874 5874 5874 5873 5873
5869 5869 5869 5869 5869 5869 5870 5870 5870 5870 5871 5871 5872 5872 5872 5872 5873 5873 5874 5874 5875 5875 5875 5876 5876 5876 5877 5877 5877 5876 5876 5876 5876 5875 5875 5875 5875 5875 5875 5874 5874 5874 5874 5874 5874 5873 5873 5873 5872
5867 5868 5868 5868 5868 5868 5868 5868 5869 5869 5870 5870 5871 5871 5871 5871 5872 5872 5872 5873 5873 5874 5874 5874 5875 5875 5875 5875 5875 5875 5875 5875 5874 5874 5874 5874 5874 5874 5873 5873 5873 5873 5873 5873 5872 5872 5872 5871 5871
5866 5868 5867 5867 5867 5867 5867 5867 5868 5868 5868 5869 5869 5870 5870 5870 5870 5871 5871 5872 5872 5872 5872 5873 5873 5873 5874 5874 5874 5874 5874 5874 5873 5873 5873 5873 5873 5872 5872 5872 5872 5872 5872 5872 5871 5871 5871 5870 5869
5865 5866 5866 5866 5866 5866 5866 5866 5867 5867 5867 5868 5868 5868 5868 5869 5869 5870 5870 5870 5870 5871 5871 5872 5872 5872 5872 5872 5872 5872 5872 5872 5872 5872 5872 5871 5871 5871 5871 5871 5871 5871 5870 5870 5870 5869 5869 5868 5868
5863 5864 5864 5864 5865 5865 5865 5865 5865 5866 5866 5867 5867 5867 5867 5868 5868 5868 5869 5869 5869 5869 5870 5870 5870 5870 5871 5871 5871 5871 5870 5870 5870 5870 5870 5870 5870 5869 5869 5869 5869 5869 5869 5868 5868 5868 5867 5867 5866
5862 5862 5863 5863 5863 5863 5864 5864 5864 5865 5865 5865 5865 5866 5866 5866 5867 5867 5867 5867 5868 5868 5868 5868 5868 5868 5869 5869 5869 5869 5869 5869 5869 5868 5868 5868 5868 5868 5867 5867 5867 5867 5867 5866 5866 5866 5865 5865 5864
5860 5861 5861 5862 5862 5862 5862 5863 5863 5863 5863 5864 5864 5864 5865 5865 5865 5865 5866 5866 5866 5866 5866 5866 5867 5867 5867 5867 5867 5867 5867 5867 5867 5867 5866 5866 5866 5866 5866 5866 5865 5865 5865 5864 5864 5864 5863 5863 5862
5859 5859 5859 5860 5860 5861 5861 5862 5862 5862 5862 5862 5862 5863 5863 5863 5864 5864 5864 5864 5864 5864 5864 5864 5864 5864 5865 5865 5865 5865 5865 5865 5864 5864 5864 5864 5864 5864 5864 5864 5863 5863 5863 5862 5862 5862 5861 5861 5860
5857 5858 5858 5858 5859 5859 5860 5860 5860 5860 5860 5861 5861 5861 5861 5862 5862 5862 5862 5862 5863 5862 5862 5862 5862 5862 5862 5862 5862 5862 5862 5862 5862 5862 5862 5862 5862 5862 5862 5862 5861 5861 5861 5860 5860 5860 5859 5859 5858
5855 5856 5857 5857 5857 5858 5860 5859 5859 5858 5859 5859 5859 5859 5859 5860 5860 5860 5860 5860 5860 5860 5860 5860 5860 5860 5860 5860 5860 5860 5860 5860 5860 5860 5860 5860 5860 5860 5860 5859 5859 5859 5858 5858 5858 5857 5857 5857 5856
5853 5854 5855 5855 5855 5856 5857 5857 5857 5856 5856 5856 5857 5857 5857 5857 5857 5857 5857 5857 5857 5857 5857 5857 5857 5857 5857 5857 5857 5857 5857 5857 5858 5858 5858 5858 5858 5858 5857 5857 5857 5856 5856 5856 5856 5855 5855 5854 5854
5851 5851 5852 5853 5853 5853 5854 5854 5854 5854 5854 5854 5854 5854 5854 5854 5854 5854 5854 5854 5854 5854 5854 5854 5854 5854 5854 5854 5854 5854 5854 5855 5855 5855 5855 5855 5855 5855 5855 5855 5855 5854 5854 5854 5853 5853 5852 5852 5851
5847 5848 5849 5850 5850 5851 5851 5851 5851 5851 5851 5851 5851 5851 5851 5851 5851 5851 5851 5851 5851 5851 5851 5851 5851 5851 5851 5851 5851 5851 5852 5852 5852 5852 5852 5852 5852 5852 5852 5852 5852 5852 5851 5851 5851 5850 5850 5849 5849
5844 5845 5846 5847 5847 5847 5848 5848 5848 5847 5847 5847 5847 5847 5847 5847 5847 5848 5848 5848 5848 5847 5848 5847 5848 5848 5848 5848 5848 5848 5848 5849 5849 5849 5849 5849 5849 5849 5849 5849 5849 5849 5848 5848 5848 5847 5847 5846 5846
5841 5842 5843 5843 5843 5844 5844 5845 5844 5844 5844 5844 5843 5843 5843 5843 5844 5844 5844 5844 5844 5844 5844 5844 5844 5844 5844 5844 5845 5845 5845 5845 5845 5845 5845 5845 5845 5845 5846 5846 5846 5845 5845 5845 5845 5844 5844 5843 5843
5837 5838 5839 5839 5840 5840 5841 5841 5841 5839 5840 5839 5839 5839 5839 5839 5839 5839 5839 5839 5840 5840 5840 5840 5840 5840 5840 5841 5841 5841 5842 5842 5841 5842 5841 5842 5842 5842 5842 5842 5842 5842 5842 5841 5841 5841 5840 5840 5840
5833 5834 5835 5835 5836 5836 5836 5836 5837 5836 5835 5835 5835 5834 5834 5834 5834 5835 5835 5835 5835 5835 5835 5835 5835 5836 5836 5836 5836 5837 5837 5837 5837 5837 5838 5838 5838 5838 5838 5838 5838 5838 5838 5838 5837 5837 5837 5836 5836
5829 5830 5831 5831 5831 5832 5832 5832 5832 5831 5831 5830 5830 5830 5829 5829 5829 5829 5829 5830 5830 5830 5830 5830 5830 5831 5831 5831 5831 5832 5832 5832 5832 5833 5833 5833 5834 5834 5834 5834 5834 5834 5834 5834 5833 5833 5832 5832 5832
5825 5826 5827 5827 5827 5827 5827 5826 5827 5826 5826 5825 5825 5825 5824 5824 5824 5824 5824 5824 5824 5825 5825 5825 5825 5825 5825 5826 5826 5826 5826 5827 5827 5827 5828 5828 5829 5829 5829 5829 5829 5829 5829 5829 5829 5828 5828 5827 5827
5820 5821 5822 5823 5822 5822 5821 5821 5822 5821 5820 5820 5820 5819 5819 5818 5818 5818 5818 5818 5818 5819 5819 5819 5819 5819 5819 5820 5820 5820 5821 5821 5821 5822 5822 5823 5823 5824 5824 5824 5824 5824 5824 5824 5824 5824 5823 5822 5822
5814 5815 5816 5816 5816 5816 5816 5816 5816 5815 5815 5814 5814 5813 5813 5812 5812 5812 5812 5812 5812 5812 5813 5813 5813 5813 5813 5813 5814 5814 5814 5815 5815 5816 5817 5817 5817 5818 5818 5818 5818 5819 5819 5818 5818 5818 5818 5817 5816
5809 5810 5810 5810 5810 5810 5811 5810 5810 5809 5809 5808 5808 5807 5806 5806 5806 5805 5805 5805 5806 5806 5806 5806 5806 5807 5807 5807 5807 5808 5808 5808 5809 5809 5810 5811 5811 5811 5812 5812 5812 5812 5812 5812 5812 5812 5812 5811 5811
5803 5804 5804 5804 5804 5805 5805 5807 5804 5803 5803 5802 5802 5800 5800 5799 5799 5799 5798 5798 5799 5799 5800 5800 5800 5800 5800 5800 5800 5801 5801 5802 5802 5803 5803 5804 5804 5805 5805 5805 5806 5806 5806 5806 5806 5806 5806 5805 5805
5797 5798 5798 5799 5798 5798 5798 5801 5797 5797 5796 5796 5795 5794 5793 5792 5792 5791 5791 5791 5792 5792 5792 5792 5793 5793 5793 5793 5794 5794 5794 5795 5795 5796 5796 5797 5797 5798 5798 5799 5799 5799 5799 5799 5799 5799 5799 5798 5798